Location: Doyran Deresi
(36.8951°N, 30.5234°E)
Time: 13:50:53
(UTC+00:00)

Daily predictions for brighter satellites

Satellite Brightness Start Highest point End
(mag) Time Altitude Azimuth Time Altitude Azimuth Time Altitude Azimuth
Cosmos 1092 Rocket 4.1 15:03:50 10° S 15:10:03 67° E 15:16:15 10° NNE
BREEZE-M DEB (TANK) 4.0 15:06:18 10° WNW 15:10:49 24° N 15:13:28 10° NE
STARLINK-43 3.6 15:07:52 10° SW 15:11:33 68° NW 15:15:16 10° NE
Aureole 1 Rocket 2.9 15:09:28 10° SSW 15:12:21 52° WNW 15:15:29 10° N
Envisat 3.8 15:08:13 10° SE 15:12:31 29° ENE 15:16:50 10° N
Cosmos 1500 4.3 15:10:13 10° NNW 15:13:51 48° W 15:17:27 10° SSW
Okean 1 4.1 15:11:36 10° SSE 15:15:07 31° E 15:18:39 10° NNE
Cosmos 2242 Rocket 4.0 15:11:53 10° SSW 15:16:26 70° W 15:21:01 10° N
Abrixas rocket 1.9 15:13:28 10° SW 15:16:29 89° SSE 15:19:30 10° NE
Okean 1-7 3.1 15:14:33 10° S 15:18:46 55° E 15:23:04 10° NNE
Cosmos 292 Rocket 3.7 15:15:35 10° NNW 15:20:28 78° ENE 15:25:18 10° SSE
Cosmos 407 Rocket 3.5 15:15:36 10° S 15:20:45 73° ESE 15:26:00 10° NNE
Cosmos 1908 Rocket 3.5 15:20:45 10° N 15:25:08 78° E 15:29:27 10° S
Delta 2 Rocket 4.0 15:20:25 10° WSW 15:25:45 68° S 15:30:24 11° E
BREEZE-M DEB (TANK) 3.2 15:22:02 10° NW 15:25:52 26° NNE 15:27:40 13° ENE
STARLINK-80 3.4 15:26:11 10° SW 15:29:58 89° NW 15:33:23 13° NE
YAOGAN 1 4.0 15:30:01 10° ESE 15:32:44 17° ENE 15:35:29 10° NNE
Okean-O 2.9 15:29:16 10° SE 15:33:30 46° ENE 15:37:44 10° N
COSMO-SKYMED 1 3.2 15:29:37 10° NNE 15:33:37 35° E 15:37:35 10° SSE
CZ-4 R/B 2.6 15:32:08 10° ESE 15:34:57 20° ENE 15:37:46 10° NNE
NOAA 12 4.1 15:31:44 10° SSE 15:36:56 59° ENE 15:42:07 10° N
NOSS 7 (H) 4.2 15:35:10 10° SSW 15:38:49 84° SE 15:41:21 14° NE
H-2A R/B 2.9 15:36:40 10° S 15:40:20 74° WSW 15:44:02 10° NNW
CZ-3B R/B 3.5 15:39:00 10° S 15:41:16 14° SSE 15:44:05 10° ESE
Cosmos 2297 3.6 15:37:51 10° NNW 15:43:33 74° ENE 15:49:10 10° SSE
Cosmos 1428 Rocket 4.4 15:37:35 10° S 15:43:44 76° E 15:49:58 10° N
Cosmos 1441 Rocket 3.1 15:40:05 10° N 15:43:52 90° NNE 15:47:36 10° S
Cosmos 921 Rocket 2.9 15:45:17 10° NNW 15:49:37 86° ENE 15:54:00 10° SSE
S3M 4.5 15:44:12 10° NNE 15:49:48 35° ENE 15:55:18 10° SE
Okean 3 4.0 15:46:23 10° SSE 15:50:12 36° E 15:53:16 15° NNE
GPS 2-05 Rocket1 3.4 15:49:20 10° SW 15:51:51 33° SSE 15:52:56 23° ESE
Genesis I 3.7 15:48:40 10° NW 15:52:29 61° WSW 15:56:13 10° SSE
Cosmos 1975 3.1 15:51:13 10° N 15:55:02 42° E 15:58:51 10° SSE
Lacrosse 5 2.0 15:51:35 10° SSW 15:56:36 60° SE 15:59:45 22° NE
Cosmos 1666 4.4 15:54:16 10° NNW 15:57:41 35° W 16:01:05 10° SSW
SKYMED 3 4.5 15:53:25 10° NNE 15:57:45 69° ESE 16:02:04 10° S
Cosmos 1515 3.9 15:56:34 10° SSE 16:00:10 45° E 16:02:13 22° NNE
Cosmos 1553 Rocket 4.1 15:54:20 10° N 16:00:39 59° E 16:06:57 10° SSE
CZ-4C R/B 2.3 15:56:47 10° S 16:01:20 45° ESE 16:04:09 24° NE
YAOGAN 6 2.4 16:00:46 10° SSE 16:04:15 62° ENE 16:07:49 10° N
OAO 3 Rocket 3.8 15:59:54 10° W 16:04:26 50° SSW 16:08:01 16° ESE
Cosmos 2026 Rocket 4.4 15:58:33 10° SSW 16:04:31 63° W 16:10:33 10° N
Cosmos 489 Rocket 4.5 16:01:50 10° NNW 16:08:09 63° ENE 16:14:26 10° SSE
Cosmos 1867 3.5 16:02:49 10° NNW 16:08:15 64° ENE 16:13:37 10° SE
Cosmos 2151 Rocket 4.2 16:04:17 10° NNE 16:08:16 33° ENE 16:12:12 10° SE
STARLINK-70 4.3 16:06:20 10° SSW 16:09:58 34° SE 16:10:39 32° ESE
Meteor 2-9 Rocket 4.3 16:04:15 10° N 16:09:59 57° ENE 16:15:35 10° SSE
STARLINK-48 4.0 16:07:15 10° WSW 16:11:03 52° NW 16:12:47 28° NNE
STARLINK-68 4.2 16:08:00 10° SSW 16:11:43 37° SE 16:12:24 34° ESE
Cosmos 1943 3.4 16:06:45 10° S 16:12:08 47° ESE 16:14:50 27° NE
STARLINK-58 4.2 16:09:34 10° SSW 16:13:17 37° SE 16:13:53 35° ESE
STARLINK-62 4.1 16:11:14 10° SSW 16:15:00 40° SE 16:15:34 37° ESE
STARLINK-63 4.1 16:12:49 10° SSW 16:16:34 40° SE 16:17:02 38° ESE
STARLINK-72 4.0 16:16:00 10° SSW 16:19:47 41° SE 16:20:05 40° ESE
Aureole 3 Rocket 4.2 16:22:26 20° SSE 16:22:26 20° SSE 16:23:45 10° SSE
Cosmos 676 Rocket 4.5 16:15:53 10° SSW 16:20:58 60° WNW 16:26:00 11° N
Cosmos 1461 3.2 16:17:33 10° S 16:21:06 41° ESE 16:21:06 41° ESE
SKYMED 2 4.0 16:17:28 10° N 16:21:46 61° WNW 16:26:01 10° SSW
STARLINK-59 3.8 16:19:18 10° SSW 16:23:09 46° SE 16:23:24 46° ESE
STARLINK-55 3.8 16:22:34 10° SSW 16:26:27 50° SE 16:26:34 50° SE
STARLINK-28 3.7 16:24:14 10° SSW 16:28:08 53° SE 16:28:12 53° SE
OAO 2 Rocket 4.4 16:24:02 10° W 16:28:38 38° SSW 16:31:43 19° SE
Cosmos 2369 Rocket 2.3 16:23:38 10° N 16:29:06 49° ENE 16:31:15 33° ESE
STARLINK-53 3.6 16:27:27 10° SSW 16:31:20 57° SE 16:31:20 57° SE
SL-16 R/B 4.2 16:26:54 10° WSW 16:31:27 24° WNW 16:36:01 10° N
STARLINK-54 3.6 16:29:06 10° SSW 16:32:58 59° SE 16:32:58 59° SE
Okean 2 Rocket 3.2 16:30:28 10° N 16:34:57 75° W 16:39:27 10° S
IRIDIUM 104 4.2 16:30:54 10° S 16:36:06 78° E 16:40:24 15° N
STARLINK-34 3.6 16:32:23 10° SW 16:36:09 63° SSE 16:36:09 63° SSE
Cosmos 1603 3.8 16:32:38 10° SSW 16:38:20 75° WNW 16:41:50 25° NNE
STARLINK-61 3.5 16:34:58 10° SW 16:38:57 72° NW 16:39:06 71° NNW
STARLINK-81 3.8 16:35:31 10° SW 16:39:02 57° SSE 16:39:02 57° SSE
STARLINK-24 3.7 16:37:19 10° SW 16:40:55 65° S 16:40:55 65° S
STARLINK-77 3.8 16:38:48 10° SW 16:42:13 58° S 16:42:13 58° S
USA 267 3.3 16:37:30 10° SE 16:44:03 80° SW 16:50:38 10° NW
OAO 3 Copernicus 4.3 16:39:05 10° W 16:44:08 72° S 16:44:47 62° SE
STARLINK-25 3.9 16:40:26 10° SW 16:43:48 58° S 16:43:48 58° S
IRIDIUM 114 4.3 16:40:01 10° S 16:45:14 85° W 16:49:31 16° N
STARLINK-71 3.8 16:42:16 10° SW 16:45:43 64° SSW 16:45:43 64° SSW
STARLINK-79 3.9 16:43:46 10° SW 16:47:02 57° SSW 16:47:02 57° SSW
Cosmos 2084 Rocket 3.7 16:44:32 10° SSW 16:48:18 63° S 16:48:18 63° S
Centaur D-1A AC-31 3.3 16:45:16 10° WSW 16:49:20 37° S 16:55:30 22° ESE
STARLINK-78 4.0 16:45:24 10° SW 16:48:37 56° SSW 16:48:37 56° SSW
STARLINK-57 4.0 16:47:08 10° SW 16:50:21 56° SW 16:50:21 56° SW
Cosmos 1943 Rocket 2.1 16:45:59 10° NNW 16:51:38 88° WSW 16:57:11 10° SSE
STARLINK-49 4.2 16:48:41 10° SW 16:51:47 52° SW 16:51:47 52° SW
Cosmos 1741 Rocket 3.9 16:48:11 10° SSW 16:53:27 86° WNW 16:54:22 62° N
NOSS 3-1 (C) 4.2 16:46:18 10° NNW 16:53:52 54° NE 16:55:30 48° E
STARLINK-27 4.2 16:50:20 10° SW 16:53:23 51° SW 16:53:23 51° SW
USA 81 3.9 16:49:33 10° S 16:54:49 88° E 16:55:59 56° N
STARLINK-74 4.3 16:51:59 10° SW 16:54:57 49° SW 16:54:57 49° SW
STARLINK-39 4.4 16:53:38 10° SW 16:56:34 47° SW 16:56:34 47° SW
Cosmos 1674 Rocket 3.8 16:54:42 10° SSW 16:58:51 67° WSW 16:58:51 67° WSW
STARLINK 4.5 16:55:19 10° SW 16:58:11 45° SW 16:58:11 45° SW
CSL-04 Rocket 4.0 16:54:27 10° S 16:59:40 62° WSW 17:04:55 10° NNW
Meteor 2-4 Rocket 4.4 16:54:11 10° SSW 16:59:56 55° WNW 17:05:02 13° N
USA 229 DEB 3.8 16:57:22 10° NNW 17:04:38 62° NE 17:05:00 61° ENE
USA 229 3.8 16:57:28 10° NNW 17:04:43 61° NE 17:05:00 61° ENE
Gbstr 26 Del rocket 4.3 16:58:31 10° WSW 17:05:32 56° NW 17:06:46 48° N
Delta 2 Rocket 4.2 17:03:14 10° W 17:07:18 55° WSW 17:07:18 55° WSW
YAOGAN 1 3.9 17:04:28 10° SSW 17:08:30 38° W 17:12:34 10° NNW
CZ-4 R/B 3.5 17:06:36 10° SSW 17:09:49 24° W 17:13:01 10° NW
NOSS 3-1 (A) 4.5 17:02:49 10° NNW 17:09:00 44° NNE 17:09:00 44° NNE
CZ-3B R/B 3.3 17:29:26 10° SW 17:32:49 30° SSW 17:32:49 30° SSW
Lacrosse 5 3.8 17:35:45 10° W 17:38:59 23° NW 17:38:59 23° NW
CZ-4C R/B 4.0 17:45:58 10° W 17:49:23 23° NW 17:49:23 23° NW
Cosmos 2369 Rocket 4.4 18:08:40 10° NW 18:12:41 20° W 18:13:17 20° WSW
